VK1ET-13 Weather Reports


time (UTC)temp
C
wind
direction
speed
KPH
gust
KPH
rain 1hr
cm
rain 24hr
cm
rain mn
cm
humidity
%
barometer
mb
20260906143522 7 176 3.2 6.4 0.00 0.00 0.00 95 1022.4
20260906142538 7 127 3.2 6.4 0.00 0.00 0.00 96 1022.6
20260906141518 7 179 3.2 6.4 0.00 0.00 0.00 95 1022.7
20260906140526 7 180 4.8 8.0 0.00 0.00 0.00 95 1022.5
20260906135541 7 181 8.0 9.7 0.00 0.00 0.00 95 1022.4
20260906134522 8 182 6.4 11.3 0.00 0.00 0.00 94 1022.5
20260906133530 8 184 3.2 6.4 0.00 0.00 0.00 93 1022.4
20260906132516 8 191 3.2 6.4 0.00 0.00 0.00 93 1022.6
20260906131523 8 180 1.6 6.4 0.00 0.00 0.00 93 1022.7
20260906130530 8 175 0.0 6.4 0.00 0.00 0.00 93 1022.7
20260906125517 8 0.0 0.0 0.00 0.00 0.00 93 1022.8
20260906124523 8 0.0 0.0 0.00 0.00 0.00 93 1022.9
20260906123531 8 301 0.0 1.6 0.00 0.00 0.00 93 1022.9
20260906122517 8 0.0 0.0 0.00 0.00 0.00 93 1022.9
20260906121524 8 5 0.0 3.2 0.00 0.00 0.00 92 1022.9
20260906120545 8 130 0.0 1.6 0.00 0.00 0.00 92 1022.9
20260906115518 8 0.0 0.0 0.00 0.00 0.00 92 1022.9
20260906114523 8 227 0.0 1.6 0.00 0.00 0.00 91 1022.7
20260906113529 8 350 0.0 1.6 0.00 0.00 0.00 91 1022.5
20260906112537 8 10 0.0 3.2 0.00 0.00 0.00 90 1022.4
20260906111527 8 342 0.0 1.6 0.00 0.00 0.00 90 1022.3
20260906110528 8 346 0.0 3.2 0.00 0.00 0.00 90 1022.3
20260906105534 8 43 0.0 3.2 0.00 0.00 0.00 90 1022.1
20260906104519 9 170 1.6 3.2 0.00 0.00 0.00 89 1022.1
20260906103525 9 147 0.0 3.2 0.00 0.00 0.00 89 1021.9
20260906102531 9 11 3.2 3.2 0.00 0.00 0.00 88 1021.7
20260906101517 10 1 3.2 6.4 0.00 0.00 0.00 88 1021.7
20260906100524 10 4 3.2 6.4 0.00 0.00 0.00 88 1021.6
20260906095531 10 20 3.2 6.4 0.00 0.00 0.00 88 1021.4
20260906094536 10 5 3.2 8.0 0.00 0.00 0.00 87 1021.5
20260906093521 10 5 3.2 6.4 0.00 0.00 0.00 87 1021.5
20260906092528 10 6 4.8 8.0 0.00 0.00 0.00 86 1021.2
20260906091542 10 358 4.8 12.9 0.00 0.00 0.00 86 1021.2
20260906090522 10 1 3.2 8.0 0.00 0.00 0.00 85 1021.2
20260906085528 10 357 6.4 9.7 0.00 0.00 0.00 85 1020.9
20260906084534 11 0 6.4 11.3 0.00 0.00 0.00 84 1020.9
20260906083520 11 357 6.4 11.3 0.00 0.00 0.00 84 1020.8
20260906082527 11 1 6.4 12.9 0.00 0.00 0.00 83 1020.5
20260906081541 11 356 6.4 14.5 0.00 0.00 0.00 83 1020.5
20260906080528 11 352 8.0 16.1 0.00 0.00 0.00 82 1020.4
20260906075527 11 353 6.4 11.3 0.00 0.00 0.00 82 1020.2
20260906074533 12 357 8.0 14.5 0.00 0.00 0.00 80 1020.3
20260906073525 12 353 6.4 14.5 0.00 0.00 0.00 79 1019.9
20260906072524 12 354 6.4 12.9 0.00 0.00 0.00 78 1019.8
20260906071531 13 345 6.4 14.5 0.00 0.00 0.00 76 1019.6
20260906070517 13 354 8.0 14.5 0.00 0.00 0.00 75 1019.5
20260906065523 13 347 6.4 12.9 0.00 0.00 0.00 74 1019.5
20260906064528 13 350 6.4 9.7 0.00 0.00 0.00 73 1019.4
20260906063535 13 338 8.0 17.7 0.00 0.00 0.00 73 1019.4
20260906062520 13 348 9.7 19.3 0.00 0.00 0.00 72 1019.3
20260906061526 13 356 9.7 17.7 0.00 0.00 0.00 72 1019.3
20260906060533 14 357 11.3 20.9 0.00 0.00 0.00 70 1019.5
20260906055518 14 329 11.3 24.1 0.00 0.00 0.00 68 1019.5
20260906054525 15 340 9.7 19.3 0.00 0.00 0.00 66 1019.5
20260906053532 14 330 11.3 19.3 0.00 0.00 0.00 66 1019.6
20260906052517 15 330 11.3 19.3 0.00 0.00 0.00 67 1019.5
20260906051523 15 344 8.0 24.1 0.00 0.00 0.00 67 1019.4
20260906050528 15 345 6.4 20.9 0.00 0.00 0.00 66 1019.2
20260906045535 15 337 11.3 20.9 0.00 0.00 0.00 66 1019.0
20260906044528 15 348 9.7 20.9 0.00 0.00 0.00 64 1019.0
20260906043533 15 345 12.9 24.1 0.00 0.00 0.00 65 1018.9
20260906042533 15 316 6.4 14.5 0.00 0.00 0.00 67 1018.6
20260906041519 14 333 8.0 24.1 0.00 0.00 0.00 68 1018.7
20260906040526 14 346 9.7 19.3 0.00 0.00 0.00 68 1018.5
20260906035547 14 334 8.0 20.9 0.00 0.00 0.00 68 1018.5
20260906034519 14 356 8.0 19.3 0.00 0.00 0.00 69 1018.3
20260906033525 14 359 11.3 20.9 0.00 0.00 0.00 68 1018.2
20260906032538 15 360 11.3 22.5 0.00 0.00 0.00 67 1018.1
20260906031519 14 350 8.0 17.7 0.00 0.00 0.00 68 1018.0
20260906030525 14 351 8.0 16.1 0.00 0.00 0.00 66 1018.0
20260906025530 13 336 9.7 24.1 0.00 0.00 0.00 67 1018.2
20260906024536 14 350 8.0 20.9 0.00 0.00 0.00 66 1018.1
20260906023521 13 355 9.7 20.9 0.00 0.00 0.00 66 1018.1
20260906022526 13 355 9.7 16.1 0.00 0.00 0.00 67 1017.9
20260906021532 14 349 11.3 19.3 0.00 0.00 0.00 66 1018.0
20260906020525 14 343 9.7 20.9 0.00 0.00 0.00 65 1017.9
20260906015525 13 331 11.3 22.5 0.00 0.00 0.00 64 1017.9
20260906014530 13 321 9.7 20.9 0.00 0.00 0.00 66 1017.9
20260906013534 13 340 11.3 24.1 0.00 0.00 0.00 64 1018.0
20260906012526 13 341 8.0 20.9 0.00 0.00 0.00 64 1017.8
20260906011524 13 323 9.7 17.7 0.00 0.00 0.00 64 1017.8
20260906010537 13 344 11.3 20.9 0.00 0.00 0.00 65 1017.9
20260906005543 13 342 8.0 19.3 0.00 0.00 0.00 65 1017.7
20260906004522 13 336 6.4 14.5 0.00 0.00 0.00 65 1017.6
20260906003529 13 268 3.2 9.7 0.00 0.00 0.00 57 1017.5
20260906002534 13 236 8.0 14.5 0.00 0.00 0.00 58 1017.4
20260906001527 13 226 6.4 9.7 0.00 0.00 0.00 59 1017.4
20260906000541 12 236 6.4 11.3 0.00 0.00 0.00 60 1017.5
20260905235533 12 292 8.0 14.5 0.00 0.00 0.00 62 1017.3
20260905234524 12 264 8.0 16.1 0.00 0.00 0.00 63 1017.4
20260905233524 12 244 8.0 17.7 0.00 0.00 0.00 63 1017.2
20260905232530 12 238 8.0 12.9 0.00 0.00 0.00 64 1017.1
20260905231517 11 250 8.0 17.7 0.00 0.00 0.00 65 1017.1
20260905230524 11 266 9.7 16.1 0.00 0.00 0.00 66 1017.1
20260905225530 11 263 8.0 12.9 0.00 0.00 0.00 65 1017.1
20260905224517 11 299 8.0 14.5 0.00 0.00 0.00 67 1016.9
20260905223522 11 286 9.7 17.7 0.00 0.00 0.00 69 1016.9
20260905222535 10 281 9.7 22.5 0.00 0.00 0.00 70 1016.9
20260905221533 10 310 9.7 17.7 0.00 0.00 0.00 70 1016.6
20260905220519 10 297 8.0 16.1 0.00 0.00 0.00 71 1016.4
20260905215525 10 279 11.3 17.7 0.00 0.00 0.00 72 1016.3
20260905214531 10 275 8.0 12.9 0.00 0.00 0.00 74 1016.0
20260905213517 9 283 9.7 22.5 0.00 0.00 0.00 74 1015.9
20260905212523 9 282 11.3 19.3 0.00 0.00 0.00 74 1015.7
20260905211531 9 269 9.7 16.1 0.00 0.00 0.00 73 1015.6
20260905210535 9 285 6.4 12.9 0.00 0.00 0.00 73 1015.5
20260905205521 8 275 6.4 12.9 0.00 0.00 0.00 75 1014.8
20260905204527 8 274 8.0 12.9 0.00 0.00 0.00 77 1014.7
20260905203534 8 319 3.2 6.4 0.00 0.00 0.00 79 1015.1
20260905202527 8 10 4.8 11.3 0.00 0.00 0.00 78 1014.9
20260905201533 8 354 6.4 9.7 0.00 0.00 0.00 75 1014.6
20260905200532 8 79 3.2 8.0 0.00 0.00 0.00 75 1014.5
20260905195518 8 62 3.2 4.8 0.00 0.00 0.00 77 1014.5
20260905194524 8 171 3.2 9.7 0.00 0.00 0.00 73 1014.2
20260905193531 9 266 3.2 8.0 0.00 0.00 0.00 72 1014.1
20260905192517 9 252 4.8 8.0 0.00 0.00 0.00 73 1014.0
20260905191525 9 272 8.0 14.5 0.00 0.00 0.00 70 1013.7
20260905190545 9 270 9.7 16.1 0.00 0.00 0.00 71 1013.5
20260905185538 9 269 8.0 12.9 0.00 0.00 0.00 71 1013.6
20260905184523 9 309 8.0 16.1 0.00 0.00 0.00 71 1013.4
20260905183537 9 280 6.4 12.9 0.00 0.00 0.00 72 1013.2
20260905182517 8 234 8.0 16.1 0.00 0.00 0.00 75 1013.1
20260905181525 8 278 4.8 11.3 0.00 0.00 0.00 76 1013.0
20260905180534 9 303 6.4 12.9 0.00 0.00 0.00 75 1013.0
20260905175522 9 237 8.0 11.3 0.00 0.00 0.00 72 1012.7
20260905174531 9 277 4.8 11.3 0.00 0.00 0.00 71 1012.7
20260905173519 9 223 6.4 14.5 0.00 0.00 0.00 70 1012.6
20260905172527 9 243 4.8 12.9 0.00 0.00 0.00 71 1012.4
20260905171536 9 251 9.7 19.3 0.00 0.00 0.00 71 1012.1
20260905170525 9 263 16.1 27.4 0.00 0.00 0.00 71 1011.6
20260905165533 9 265 14.5 24.1 0.00 0.00 0.00 73 1011.2
20260905164521 9 278 16.1 33.8 0.00 0.00 0.00 73 1011.1
20260905163537 9 267 12.9 22.5 0.00 0.00 0.00 75 1011.3
20260905162517 9 293 9.7 20.9 0.00 0.00 0.00 74 1011.6
20260905161523 9 278 9.7 17.7 0.00 0.00 0.00 74 1012.0
20260905160530 9 290 11.3 19.3 0.00 0.00 0.00 74 1011.9
20260905155517 9 277 8.0 14.5 0.00 0.00 0.00 72 1012.0
20260905154523 9 274 11.3 24.1 0.00 0.00 0.00 71 1011.6
20260905153529 9 282 12.9 27.4 0.00 0.00 0.00 71 1011.4
20260905152535 10 272 11.3 20.9 0.00 0.00 0.00 71 1011.8
20260905151521 10 258 12.9 25.7 0.00 0.00 0.00 72 1011.8
20260905150528 10 254 12.9 27.4 0.00 0.00 0.00 73 1011.8
20260905145516 10 254 12.9 22.5 0.00 0.00 0.00 71 1011.6
20260905144525 10 254 12.9 24.1 0.00 0.00 0.00 70 1011.7